Temperature
7 8 8 8 8 8 8 8 7 8 9 10 10 10 10 10 10 10 10 10 9 9 9 9 9 9 9 9 9 9 9 9 9 9 9 9 8 8 8 8 7 7 7 7
7 8 8 8 8 8 8 8 8 8 8 10 10 10 10 10 10 10 9 9 9 9 9 8 8 9 9 9 9 9 9 9 9 8 8 8 8 7 7 7 7 6 6 6
6 8 8 7 7 8 8 8 8 8 8 9 9 9 9 9 9 9 9 9 8 8 8 8 8 8 8 8 8 8 8 8 8 8 8 7 7 6 6 6 6 6 5 5
6 7 6 7 8 8 8 8 8 8 8 9 8 9 9 8 8 8 8 8 8 8 8 8 8 8 8 8 8 8 8 8 7 7 7 7 6 6 5 5 5 5 4 4
6 6 7 8 8 8 7 7 7 7 7 8 8 8 8 7 7 7 7 7 7 7 7 7 8 8 8 8 8 7 7 7 7 7 6 6 5 5 5 4 4 4 4 3
6 6 6 6 7 7 7 6 6 6 6 7 7 6 6 6 6 7 7 7 7 7 7 7 7 7 7 7 7 7 7 7 6 6 6 5 5 4 4 4 4 3 3 3
5 5 5 6 7 7 6 5 5 5 5 5 5 5 5 5 5 6 6 6 6 6 7 6 7 7 7 7 6 6 6 6 6 5 5 5 4 4 3 3 3 3 2 2
5 5 5 5 6 5 4 5 5 4 4 4 4 4 4 5 5 5 5 6 6 6 6 6 6 6 6 6 6 6 5 5 5 5 4 4 4 3 3 2 2 2 2 1
4 5 5 5 4 4 4 4 3 3 3 4 4 4 4 4 4 5 5 5 5 5 5 5 5 5 5 5 5 5 5 5 4 4 4 3 3 3 2 2 2 1 1 1
4 4 4 4 3 3 3 2 2 2 3 3 3 3 3 3 4 4 4 4 4 4 5 5 4 4 4 4 4 4 4 4 4 3 3 3 2 2 2 2 1 1 1 1
3 4 4 3 3 2 2 2 2 2 2 2 2 2 2 2 3 3 3 3 4 4 4 4 4 4 4 4 4 3 3 3 3 2 2 2 2 2 1 1 1 1 1 0
2 2 2 2 2 1 1 1 1 1 1 1 1 2 2 2 2 2 3 3 3 3 3 3 3 3 3 3 3 3 3 2 2 2 2 1 1 1 1 1 1 0 0 -0
2 1 1 1 1 1 1 1 0 0 0 1 1 1 1 2 2 2 2 2 2 2 2 2 2 2 2 2 2 2 2 2 2 1 1 1 1 1 1 0 0 0 -0 -0
1 1 0 0 0 0 0 0 0 0 0 0 1 1 1 1 1 1 1 1 1 1 1 1 1 2 1 1 1 1 1 1 1 1 1 1 1 0 0 0 0 0 -0 -0
1 0 -0 -0 -0 -0 -0 -1 -1 -0 -0 -0 -0 0 0 0 0 1 1 1 1 1 1 1 1 1 1 1 1 1 1 1 0 0 0 0 0 -0 -0 -0 -0 -0 -0 -1
-0 -0 -1 -1 -1 -1 -1 -1 -1 -1 -1 -1 -1 -0 -0 -0 -0 0 0 0 -0 0 0 0 -0 -0 -0 -0 0 0 0 -0 -0 -0 -0 -0 -0 -0 -1 -1 -1 -1 -1 -1
-1 -1 -1 -1 -1 -1 -2 -2 -2 -2 -2 -1 -1 -1 -1 -1 -1 -0 -1 -1 -1 -1 -1 -1 -1 -1 -1 -1 -1 -0 -0 -0 -1 -1 -1 -1 -1 -1 -1 -1 -1 -1 -1 -1
-1 -1 -1 -2 -2 -2 -2 -2 -2 -2 -2 -2 -2 -1 -1 -1 -1 -1 -1 -1 -1 -1 -1 -1 -1 -1 -1 -1 -1 -1 -1 -1 -1 -1 -1 -1 -1 -1 -2 -2 -2 -2 -2 -2
-1 -1 -2 -2 -2 -2 -2 -2 -2 -2 -2 -2 -2 -2 -2 -2 -2 -2 -2 -2 -2 -2 -2 -2 -2 -2 -2 -2 -2 -2 -2 -2 -2 -2 -2 -2 -2 -2 -2 -2 -2 -2 -2 -2
-1 -2 -2 -2 -2 -2 -2 -2 -2 -2 -2 -3 -3 -3 -3 -3 -3 -3 -3 -3 -3 -3 -2 -2 -2 -2 -2 -2 -2 -2 -2 -2 -2 -2 -2 -2 -2 -2 -2 -2 -2 -2 -2 -2
-2 -2 -2 -2 -2 -2 -3 -3 -3 -3 -3 -3 -3 -3 -3 -3 -3 -3 -3 -3 -3 -3 -3 -3 -3 -3 -3 -3 -3 -3 -3 -3 -3 -3 -3 -3 -3 -3 -3 -3 -3 -3 -3 -3
-2 -2 -2 -3 -3 -3 -3 -3 -3 -3 -3 -3 -3 -3 -3 -3 -3 -4 -4 -4 -3 -3 -3 -3 -3 -3 -3 -3 -3 -3 -3 -3 -3 -3 -3 -3 -3 -3 -3 -3 -3 -3 -3 -3
-2 -2 -3 -3 -3 -3 -3 -3 -3 -3 -3 -4 -4 -4 -4 -4 -4 -4 -4 -4 -4 -4 -4 -4 -4 -4 -4 -4 -4 -4 -4 -4 -4 -4 -4 -4 -4 -4 -4 -4 -4 -4 -4 -4
-2 -3 -3 -3 -3 -3 -3 -3 -3 -4 -4 -4 -4 -4 -4 -4 -4 -4 -4 -4 -4 -4 -4 -4 -4 -4 -4 -4 -4 -4 -4 -4 -4 -5 -5 -5 -5 -5 -5 -5 -5 -5 -5 -5
-3 -3 -3 -3 -3 -3 -3 -4 -4 -4 -4 -4 -4 -4 -4 -4 -4 -4 -4 -4 -4 -4 -4 -4 -4 -4 -4 -5 -5 -5 -5 -5 -5 -5 -5 -5 -5 -5 -5 -5 -5 -5 -5 -5
-3 -3 -3 -3 -4 -4 -4 -4 -4 -4 -4 -4 -4 -4 -4 -4 -5 -5 -5 -5 -5 -5 -5 -5 -5 -5 -5 -5 -5 -5 -5 -6 -6 -6 -6 -6 -6 -6 -6 -6 -6 -6 -6 -6
-3 -3 -3 -4 -4 -4 -4 -4 -4 -4 -4 -4 -5 -5 -5 -5 -5 -5 -5 -5 -5 -5 -5 -5 -5 -5 -6 -6 -6 -6 -6 -6 -6 -6 -6 -6 -6 -6 -6 -6 -6 -6 -6 -6
Wind_Speed
5 5 4 5 6 6 7 7 6 7 6 5 3 2 2 2 2 1 2 3 3 3 4 6 6 6 6 6 6 6 6 6 6 6 5 5 5 5 4 4 3 3 3 3
3 3 3 4 5 7 7 8 8 9 9 6 4 3 2 2 2 2 2 2 3 3 4 5 6 6 6 6 6 7 6 6 6 6 6 5 5 4 4 4 3 3 3 3
2 2 2 2 3 4 3 3 4 6 7 6 5 3 3 2 1 1 1 1 2 3 3 4 5 6 7 6 7 7 6 6 6 6 6 5 5 5 4 4 3 3 3 3
3 3 1 0 4 4 2 3 4 5 7 7 5 4 4 4 3 3 2 2 1 1 2 3 4 5 6 6 7 7 6 6 6 6 6 5 5 4 4 3 3 3 3 3
2 2 2 1 3 5 3 3 8 8 9 10 7 4 4 7 6 4 3 3 2 2 1 2 4 5 6 6 6 6 6 6 7 7 6 6 5 5 4 4 3 3 3 3
3 2 1 3 5 6 3 1 9 10 10 10 9 4 4 8 7 6 5 4 4 3 3 3 3 4 5 5 5 5 6 6 6 6 6 6 6 5 4 4 4 3 3 3
4 2 0 4 7 5 2 3 8 9 9 8 6 4 5 7 7 6 5 5 4 4 3 3 3 4 3 3 4 4 5 5 5 5 5 5 5 4 5 5 4 4 3 3
2 2 1 7 6 4 4 6 7 8 8 7 6 5 6 6 6 6 5 5 5 4 4 3 3 3 2 2 3 4 5 4 5 5 5 5 5 5 5 5 5 4 4 3
1 1 2 5 4 5 6 6 7 7 8 8 7 6 6 5 4 5 5 4 4 3 3 3 3 3 2 2 3 4 4 4 4 5 4 5 6 6 5 5 5 4 4 4
3 2 3 4 5 7 7 7 8 8 8 8 7 7 6 4 4 4 4 4 3 3 2 2 3 3 2 2 2 3 3 4 4 5 5 5 5 5 5 6 5 5 5 5
3 3 4 3 6 8 8 8 9 9 8 7 7 7 6 4 3 2 3 3 3 2 1 1 2 2 1 1 2 2 3 3 4 5 5 5 5 5 6 6 6 6 5 5
2 3 5 6 7 9 9 9 9 9 9 8 7 7 6 4 3 2 2 2 2 2 2 1 1 1 1 0 1 2 3 3 3 4 4 4 4 3 5 6 8 9 8 7
2 5 6 8 7 7 8 9 8 8 8 8 7 6 6 5 3 3 2 2 2 2 2 1 1 1 1 0 1 2 2 3 3 3 4 4 4 5 4 4 7 9 10 10
3 4 6 6 7 8 8 8 7 7 7 7 6 6 5 5 4 3 3 2 2 2 2 1 1 1 1 1 1 2 2 3 3 3 3 4 4 4 4 4 4 4 7 12
2 3 6 8 8 8 7 7 7 7 7 7 5 5 5 5 5 4 3 3 2 2 2 2 2 2 2 2 2 2 2 2 2 2 3 3 4 4 4 5 5 4 3 5
4 5 6 7 8 8 8 8 8 8 7 7 6 5 5 5 5 4 3 2 2 3 2 2 3 3 3 2 2 2 2 3 2 2 3 3 3 4 4 5 5 5 5 5
4 6 6 7 8 8 8 8 8 8 7 7 6 5 5 5 4 3 3 2 2 3 2 2 2 3 3 3 3 2 2 2 3 3 3 3 3 4 4 4 5 5 5 6
4 6 6 7 7 8 8 8 7 7 6 6 5 5 5 5 5 4 4 3 3 3 2 1 2 3 3 3 3 2 2 3 3 3 3 3 4 4 4 5 5 5 4 5
4 5 6 7 6 6 7 7 6 6 5 5 5 5 5 5 4 4 4 4 4 4 3 2 4 3 3 4 4 3 3 3 3 3 3 5 5 4 4 5 5 5 5 4
4 5 6 6 6 6 6 6 6 5 4 4 4 5 5 5 4 4 4 4 3 2 3 4 4 3 3 4 4 3 3 4 4 3 3 3 4 4 4 5 5 5 5 5
5 6 6 6 6 6 5 5 5 5 5 4 4 5 5 5 5 4 4 4 3 2 3 5 3 3 3 4 5 3 3 4 4 4 4 4 4 4 4 4 5 5 5 5
5 6 7 7 7 6 5 4 5 5 5 4 4 5 5 5 4 4 4 3 3 4 4 3 3 5 6 6 4 4 4 4 4 3 3 4 4 4 4 4 4 5 4 5
6 6 7 7 7 6 6 5 5 4 5 5 5 5 5 5 4 4 4 2 2 5 4 4 6 8 9 5 3 4 4 4 4 4 4 4 4 4 4 4 4 4 4 4
6 6 7 6 5 6 7 6 5 4 5 5 5 5 5 4 3 2 2 5 6 7 4 6 9 9 8 3 3 3 3 3 4 4 4 4 4 4 4 4 4 4 4 5
6 7 7 6 6 6 6 5 5 4 4 4 4 4 3 3 3 3 2 3 6 6 4 6 8 8 4 3 3 3 3 4 4 4 3 3 3 3 4 4 4 4 4 4
6 6 6 6 5 5 4 4 4 4 3 4 3 3 2 2 2 2 2 3 4 6 4 4 4 5 3 3 3 3 3 4 4 4 3 3 3 4 4 4 5 4 4 4
6 5 5 5 5 4 4 4 4 4 3 4 4 2 2 2 2 2 3 3 3 3 3 3 3 3 3 3 3 3 3 3 3 3 3 3 3 3 4 4 4 4 4 5
Wind_Direction
287 284 268 261 256 247 243 249 263 284 291 296 313 323 333 323 296 244 205 192 178 168 162 158 154 149 144 138 135 133 131 130 127 120 115 114 112 111 109 105 104 102 97 91
285 266 263 271 271 259 256 262 269 285 293 310 328 346 326 298 274 264 239 202 180 167 160 160 157 153 148 144 138 135 137 137 132 129 127 128 128 126 124 121 116 111 108 105
291 286 279 294 287 259 258 289 290 290 303 326 333 338 344 343 356 322 276 214 174 170 167 164 160 155 156 150 139 139 144 144 142 141 141 143 141 138 140 137 126 120 120 118
294 305 255 232 15 355 332 331 334 325 336 346 350 353 10 12 23 18 26 34 44 106 150 158 150 145 144 144 145 150 154 154 151 150 151 149 148 152 149 139 139 140 136 136
297 277 251 115 7 356 344 356 14 4 359 354 348 355 15 27 31 27 31 37 34 33 86 126 139 140 140 146 149 155 163 164 160 159 159 159 162 160 151 145 148 150 147 155
289 293 306 11 354 343 327 16 18 6 357 351 353 354 2 7 16 22 27 33 32 31 48 71 107 125 140 151 155 168 168 162 157 160 164 167 166 159 153 154 161 158 163 174
269 260 313 357 334 337 347 353 357 1 358 360 359 346 333 353 10 17 20 21 28 40 51 56 79 108 129 142 160 153 139 142 150 155 159 160 159 157 156 157 158 166 176 187
281 254 271 359 5 20 348 343 357 357 355 353 347 344 349 355 5 10 16 19 23 33 40 45 64 92 111 130 126 120 130 143 151 153 157 157 157 161 161 161 167 179 187 196
288 280 2 16 21 2 355 350 349 347 343 342 339 339 341 347 357 5 13 18 22 33 35 35 48 80 105 105 108 122 139 155 162 161 162 164 167 170 170 174 183 191 194 205
291 310 356 9 13 10 360 346 338 336 335 337 330 328 328 336 349 358 3 6 12 23 34 28 33 55 94 124 135 148 166 176 176 172 174 177 177 178 182 190 195 198 202 208
277 318 337 6 3 348 340 338 336 334 331 329 322 319 320 322 335 347 350 350 358 0 1 6 21 43 63 98 141 167 183 191 187 184 183 187 190 194 199 204 200 201 206 203
291 351 322 314 330 331 329 329 329 326 326 327 323 315 316 315 323 328 328 334 331 332 339 346 356 29 75 96 179 194 199 198 193 190 190 190 193 207 214 213 215 217 215 211
313 319 302 299 313 327 324 320 319 318 318 318 318 315 313 310 316 321 323 332 320 319 319 322 328 332 8 338 245 225 223 213 201 197 198 200 197 200 214 225 228 231 230 228
326 323 303 316 320 321 317 317 315 313 315 317 319 321 319 316 317 321 324 332 323 314 308 311 311 322 351 328 282 258 241 225 217 213 210 209 207 206 205 210 222 235 232 232
333 324 302 307 311 316 318 317 315 313 318 322 323 322 323 319 315 318 327 330 319 306 310 322 313 319 340 315 291 271 254 238 224 220 221 218 212 211 214 218 224 229 223 230
312 302 296 303 309 314 316 316 313 312 316 317 318 319 319 313 308 311 321 326 314 301 304 307 308 328 330 310 296 280 262 252 241 228 224 227 221 218 221 224 228 228 229 227
299 300 304 307 308 309 309 310 309 310 313 312 313 316 315 311 309 312 320 320 307 298 298 297 310 325 316 309 300 280 274 261 243 238 230 227 230 228 228 230 234 238 239 233
275 287 293 293 296 300 304 306 306 308 311 312 314 313 310 309 309 313 320 321 310 302 310 314 320 316 308 306 306 289 272 263 252 244 241 236 239 234 231 234 238 244 250 248
286 292 298 301 299 295 296 298 300 301 304 308 309 308 308 309 308 309 312 307 298 299 316 329 326 321 306 298 301 283 271 263 260 254 247 251 250 241 239 241 244 246 247 241
294 298 301 301 300 294 293 297 298 296 301 305 303 301 304 307 309 308 305 295 287 294 321 322 315 306 305 301 306 285 274 266 263 261 252 248 249 249 247 247 247 247 246 245
291 293 293 292 290 286 284 289 291 291 296 297 293 294 298 301 301 297 294 294 302 331 327 319 313 302 301 305 303 288 279 276 271 263 257 255 254 254 253 253 255 255 253 253
279 282 283 283 284 284 281 279 279 282 287 288 287 289 293 296 298 294 279 277 303 324 326 309 303 306 310 311 294 283 275 274 276 273 267 264 261 259 258 259 259 262 260 258
279 280 279 277 277 280 281 275 271 273 276 280 283 284 282 283 285 286 292 301 316 316 317 299 306 309 312 309 292 288 283 278 275 272 269 268 269 268 265 263 263 263 263 262
281 283 280 277 276 278 278 277 272 266 265 270 268 267 272 280 281 266 272 303 311 310 306 305 312 313 314 307 293 291 289 285 280 277 273 269 268 268 266 266 267 267 265 264
276 278 278 275 273 269 269 273 273 267 264 267 268 263 256 252 262 281 287 290 302 309 308 311 316 319 321 303 298 294 291 285 284 285 277 279 278 276 273 271 270 269 267 264
273 273 271 264 261 265 268 268 268 268 265 272 272 261 257 259 267 278 283 287 293 307 310 305 308 314 313 307 305 305 303 306 309 303 294 290 284 282 282 280 276 274 272 269
271 270 271 273 263 251 251 256 263 268 265 265 272 264 254 263 274 283 288 291 298 301 301 303 307 309 309 309 308 307 304 302 302 301 299 293 289 284 283 282 280 278 277 275
Height
1477 1474 1474 1474 1474 1473 1474 1474 1475 1468 1464 1461 1460 1460 1460 1460 1460 1460 1461 1461 1462 1463 1464 1465 1467 1468 1470 1471 1473 1475 1477 1479 1481 1483 1484 1485 1487 1487 1489 1490 1490 1490 1491 1491
1476 1472 1472 1472 1471 1471 1471 1470 1469 1467 1464 1460 1459 1459 1459 1459 1459 1459 1459 1460 1461 1462 1463 1464 1465 1466 1467 1469 1471 1473 1475 1477 1478 1480 1481 1482 1483 1484 1485 1486 1486 1487 1487 1487
1478 1472 1472 1475 1471 1469 1468 1467 1467 1467 1465 1460 1459 1459 1459 1458 1458 1458 1458 1459 1459 1460 1461 1462 1463 1464 1465 1467 1469 1471 1473 1474 1476 1477 1478 1479 1480 1481 1482 1482 1483 1483 1483 1483
1479 1476 1479 1476 1468 1467 1467 1466 1466 1465 1463 1461 1460 1459 1458 1458 1458 1458 1458 1457 1458 1458 1458 1459 1460 1462 1463 1465 1467 1468 1470 1471 1473 1474 1475 1476 1477 1478 1479 1479 1479 1479 1480 1480
1481 1479 1474 1471 1470 1469 1469 1469 1468 1467 1465 1463 1461 1458 1458 1458 1458 1457 1457 1456 1456 1456 1457 1457 1458 1459 1461 1463 1464 1466 1467 1469 1470 1471 1472 1473 1474 1474 1475 1475 1476 1476 1476 1476
1482 1480 1480 1476 1472 1469 1471 1471 1472 1469 1467 1465 1462 1462 1463 1460 1459 1457 1456 1455 1455 1455 1455 1456 1456 1457 1459 1460 1461 1463 1464 1466 1467 1468 1469 1470 1470 1471 1471 1472 1472 1473 1473 1473
1483 1481 1478 1477 1473 1470 1475 1477 1474 1471 1469 1467 1466 1467 1465 1461 1459 1458 1456 1455 1454 1454 1454 1454 1455 1456 1456 1457 1459 1460 1462 1463 1464 1465 1465 1466 1467 1467 1468 1468 1469 1469 1469 1470
1482 1481 1484 1478 1475 1478 1480 1476 1474 1472 1470 1468 1466 1464 1463 1461 1459 1457 1456 1455 1454 1453 1453 1453 1454 1454 1454 1455 1456 1458 1459 1459 1460 1461 1462 1462 1463 1464 1464 1465 1465 1465 1466 1466
1484 1484 1481 1479 1479 1480 1478 1476 1474 1472 1470 1468 1465 1464 1462 1460 1459 1457 1456 1455 1454 1453 1452 1452 1452 1453 1453 1453 1454 1455 1455 1456 1457 1457 1458 1459 1459 1460 1460 1461 1461 1462 1462 1463
1481 1479 1480 1479 1479 1478 1477 1476 1474 1471 1469 1467 1464 1462 1460 1459 1457 1456 1455 1454 1453 1452 1451 1451 1451 1450 1451 1451 1451 1452 1452 1453 1453 1454 1454 1455 1456 1456 1457 1457 1458 1458 1459 1459
1481 1480 1479 1478 1479 1478 1476 1474 1471 1469 1467 1465 1462 1460 1459 1457 1456 1454 1453 1452 1451 1450 1449 1449 1448 1448 1448 1448 1448 1448 1449 1449 1449 1450 1451 1451 1452 1453 1453 1454 1454 1455 1455 1456
1483 1482 1482 1479 1477 1476 1474 1471 1469 1466 1463 1461 1460 1457 1456 1454 1453 1452 1451 1450 1449 1448 1447 1447 1446 1446 1446 1445 1445 1445 1445 1445 1446 1446 1447 1447 1448 1449 1449 1450 1450 1451 1451 1452
1481 1480 1479 1477 1475 1473 1471 1469 1466 1463 1461 1458 1456 1454 1453 1451 1450 1449 1448 1447 1446 1445 1445 1444 1443 1443 1443 1442 1442 1442 1442 1442 1442 1443 1443 1443 1444 1444 1445 1446 1447 1447 1447 1447
1479 1478 1476 1474 1472 1470 1468 1465 1463 1460 1458 1456 1453 1451 1450 1448 1447 1446 1445 1444 1443 1443 1442 1441 1440 1440 1439 1439 1439 1439 1438 1438 1439 1439 1439 1440 1440 1440 1441 1441 1442 1442 1443 1443
1476 1475 1474 1471 1469 1467 1465 1462 1459 1457 1455 1452 1450 1448 1447 1445 1444 1443 1442 1441 1440 1439 1438 1438 1437 1437 1436 1436 1435 1435 1435 1435 1435 1435 1435 1436 1436 1436 1436 1437 1437 1438 1438 1439
1473 1471 1470 1468 1466 1464 1461 1459 1456 1454 1452 1449 1447 1445 1444 1442 1441 1439 1438 1437 1436 1435 1435 1434 1434 1433 1433 1432 1432 1431 1431 1431 1431 1431 1431 1431 1431 1432 1432 1432 1433 1433 1433 1434
1469 1468 1466 1464 1462 1460 1458 1456 1454 1451 1449 1446 1444 1442 1441 1439 1437 1436 1435 1434 1433 1432 1431 1431 1430 1430 1429 1428 1428 1428 1427 1427 1427 1427 1427 1427 1427 1427 1427 1427 1428 1428 1428 1429
1467 1465 1463 1461 1459 1456 1454 1452 1450 1448 1445 1443 1441 1439 1438 1436 1435 1433 1432 1431 1430 1429 1428 1427 1427 1426 1425 1425 1424 1424 1423 1423 1423 1422 1422 1422 1422 1422 1423 1423 1423 1423 1423 1424
1463 1462 1460 1457 1455 1453 1451 1449 1446 1444 1442 1440 1438 1436 1435 1433 1432 1430 1429 1428 1427 1426 1425 1424 1423 1422 1421 1421 1420 1419 1419 1419 1418 1418 1418 1418 1418 1418 1418 1418 1418 1418 1418 1418
1459 1458 1456 1453 1451 1449 1447 1445 1443 1441 1439 1437 1435 1433 1432 1430 1429 1427 1426 1425 1424 1423 1421 1420 1419 1419 1418 1417 1416 1416 1415 1415 1414 1414 1414 1414 1413 1413 1413 1413 1413 1413 1413 1413
1456 1454 1452 1450 1448 1445 1443 1441 1439 1437 1435 1434 1432 1430 1428 1427 1425 1424 1422 1421 1421 1420 1418 1417 1416 1415 1414 1413 1412 1412 1411 1411 1410 1410 1410 1409 1409 1409 1409 1408 1408 1408 1408 1408
1452 1450 1448 1446 1443 1441 1439 1438 1436 1434 1432 1430 1429 1427 1425 1424 1422 1421 1420 1419 1417 1416 1415 1414 1413 1411 1410 1409 1408 1407 1407 1406 1406 1406 1405 1405 1405 1404 1404 1404 1403 1403 1403 1402
1447 1445 1443 1442 1439 1437 1435 1434 1432 1430 1428 1427 1425 1423 1422 1420 1419 1418 1416 1415 1414 1413 1411 1410 1409 1407 1406 1405 1404 1403 1403 1402 1401 1401 1401 1400 1400 1400 1399 1399 1398 1398 1397 1397
1443 1441 1439 1437 1435 1433 1431 1430 1428 1426 1425 1423 1421 1420 1419 1417 1416 1415 1413 1412 1411 1409 1408 1406 1405 1404 1403 1401 1400 1399 1399 1398 1397 1397 1396 1396 1396 1395 1395 1394 1394 1393 1392 1391
1438 1436 1434 1432 1430 1429 1427 1426 1424 1422 1421 1419 1418 1417 1415 1414 1413 1411 1410 1409 1407 1406 1405 1403 1402 1400 1399 1398 1397 1396 1395 1394 1393 1393 1392 1392 1391 1391 1390 1390 1389 1388 1387 1386
1434 1432 1430 1428 1426 1425 1423 1422 1420 1419 1417 1416 1414 1413 1412 1411 1409 1408 1407 1406 1404 1403 1401 1400 1398 1397 1396 1395 1393 1392 1391 1391 1390 1389 1388 1388 1387 1387 1386 1385 1384 1384 1383 1382
1429 1428 1426 1424 1422 1421 1419 1418 1417 1415 1414 1412 1411 1410 1408 1407 1406 1405 1404 1403 1401 1400 1398 1397 1395 1394 1393 1392 1390 1389 1388 1387 1387 1386 1385 1384 1383 1382 1382 1381 1380 1379 1378 1377